Montoursville, PA

9:40 AM EST on December 04, 2016 (GMT -0500)
Williamsport Rgnl

Weather History for KIPT - February, 2011

Change the Weather History Date:

Wednesday, February 23, 2011

  Actual Average Record
Temperature  
Mean Temperature 20 °F 31 °F  
Max Temperature 34 °F 40 °F 70 °F (1985)
Min Temperature 6 °F 23 °F -6 °F (1972)
Degree Days  
Heating Degree Days 45 34  
Month to date heating degree days 844 824  
Since 1 July heating degree days 4392 4303  
Cooling Degree Days 0 0  
Month to date cooling degree days 0 0  
Year to date cooling degree days 0 0  
Moisture  
Dew Point 9 °F    
Average Humidity 65    
Maximum Humidity 92    
Minimum Humidity 38    
Precipitation  
Precipitation T in 0.08 in 2.18 in (1981)
Month to date precipitation 2.56 1.91  
Year to date precipitation 3.81 4.61  
Snow  
Snow 0.00 in 0.30 in 9.00 in (1935)
Month to date snowfall 11.6 7.3  
Since 1 July snowfall 30.6 26.5  
Snow Depth 7.00 in    
Sea Level Pressure  
Sea Level Pressure 30.35 in    
Wind  
Wind Speed 1 mph (SSE)    
Max Wind Speed 8 mph    
Max Gust Speed 10 mph    
Visibility 10 miles    
Events      
T = Trace of Precipitation, MM = Missing Value Source: NWS Daily Summary

Daily Weather History Graph

Daily Weather History Graph

Search for Another Location

Airport or City:

Trip Planner

Search our weather history database for the weather conditions in past years. The results will help you decide how hot, cold, wet, or windy it might be!

Date:

Astronomy

Feb. 23, 2011 Rise Set
Actual Time 6:51 AM EST 5:51 PM EST
Civil Twilight 6:23 AM EST 6:19 PM EST
Nautical Twilight 5:51 AM EST 6:51 PM EST
Astronomical Twilight 5:19 AM EST 7:23 PM EST
Moon No Moon Rise 9:32 AM EST (2/23)
Length of Visible Light 11h 55m
Length of Day
10h 59m
Waning Gibbous, 64% of the Moon is Illuminated
Feb 23
Waning Gibbous
Feb 24
Last Quarter
Mar 4
New
Mar 12
First Quarter
Mar 19
Full

Hourly Weather History & Observations

Time (EST) Temp. Windchill Dew Point Humidity Pressure Visibility Wind Dir Wind Speed Gust Speed Precip Events Conditions
12:54 AM 12.9 °F - 8.1 °F 81% 30.35 in 10.0 mi Calm Calm - N/A   Clear
1:54 AM 10.9 °F - 7.0 °F 84% 30.35 in 10.0 mi Calm Calm - N/A   Clear
2:54 AM 9.0 °F - 5.0 °F 84% 30.35 in 10.0 mi Calm Calm - N/A   Clear
3:54 AM 10.0 °F - 6.1 °F 84% 30.37 in 10.0 mi Calm Calm - N/A   Clear
4:54 AM 9.0 °F - 5.0 °F 84% 30.38 in 10.0 mi Calm Calm - N/A   Clear
5:54 AM 7.0 °F - 1.9 °F 80% 30.40 in 10.0 mi Calm Calm - N/A   Clear
6:54 AM 6.1 °F - 3.0 °F 87% 30.41 in 10.0 mi Calm Calm - N/A   Clear
7:54 AM 7.0 °F - 3.9 °F 87% 30.43 in 10.0 mi Calm Calm - N/A   Clear
8:54 AM 10.9 °F 4.7 °F 8.1 °F 88% 30.43 in 9.0 mi SW 3.5 mph - N/A   Clear
9:54 AM 16.0 °F 8.8 °F 9.0 °F 74% 30.42 in 10.0 mi WSW 4.6 mph - N/A   Clear
10:54 AM 21.0 °F 16.2 °F 10.0 °F 63% 30.41 in 10.0 mi WSW 3.5 mph - N/A   Clear
11:54 AM 26.1 °F - 7.0 °F 44% 30.40 in 10.0 mi Calm Calm - 0.00 in   Clear
12:54 PM 28.9 °F - 6.1 °F 38% 30.37 in 10.0 mi Calm Calm - N/A   Clear
1:54 PM 30.9 °F 27.5 °F 10.0 °F 42% 30.34 in 10.0 mi ESE 3.5 mph - N/A   Clear
2:54 PM 33.1 °F 30.0 °F 10.9 °F 40% 30.33 in 10.0 mi ESE 3.5 mph - N/A   Clear
3:54 PM 33.1 °F 28.7 °F 12.0 °F 42% 30.31 in 10.0 mi SE 4.6 mph - N/A   Clear
4:54 PM 33.1 °F 28.7 °F 10.9 °F 40% 30.30 in 10.0 mi ESE 4.6 mph - N/A   Clear
5:54 PM 28.9 °F - 18.0 °F 64% 30.31 in 10.0 mi Calm Calm - N/A   Clear
6:54 PM 26.1 °F - 16.0 °F 66% 30.32 in 10.0 mi Calm Calm - N/A   Clear
7:54 PM 25.0 °F - 14.0 °F 63% 30.32 in 10.0 mi Calm Calm - N/A   Clear
8:54 PM 21.9 °F - 10.9 °F 63% 30.32 in 10.0 mi Calm Calm - N/A   Clear
9:54 PM 21.9 °F - 12.9 °F 68% 30.31 in 10.0 mi Calm Calm - N/A   Clear
10:54 PM 19.4 °F - 12.2 °F 74% 30.27 in 10.0 mi Calm Calm - N/A   Clear
11:54 PM 18.0 °F - 10.0 °F 71% 30.29 in 10.0 mi Calm Calm - N/A   Clear